{"data":{"norad_id":49384,"intl_designator":"2021-099B","name":"YAOGAN-32 02B","alt_names":[],"object_type":"PAYLOAD","status":"ACTIVE","operator":null,"country":"PRC","launch_date":"2021-11-03","launch_site_code":"JSC","launch_vehicle":null,"mission":null,"orbit_class":"UNKNOWN","rcs_meters":null,"size_class":null,"mass_kg":null,"dimensions":null,"purposes":[],"wikipedia_slug":null,"has_3d_model":false,"image_url":null,"decayed_at":null,"tle_current":{"epoch":"2026-05-25T05:00:28.962720Z","epoch_age_seconds":52984,"freshness":"FRESH","line1":"1 49384U 21099B   26145.20866855  .00000636  00000+0  13010-3 0  9999","line2":"2 49384  98.2434 279.0031 0000981  76.5721 283.5590 14.64168956243009","mean_motion":14.64168956,"eccentricity":9.81e-5,"inclination_deg":98.2434,"raan_deg":279.0031,"arg_perigee_deg":76.5721,"mean_anomaly_deg":283.559,"bstar":0.0001301,"rev_number":24300,"period_min":98.349305529191,"perigee_km":679.05238068829,"apogee_km":680.43713708938,"semimajor_km":7057.8817588888,"source":"CELESTRAK","updated_at":"2026-05-25T13:37:57.172949Z"}}}